Voltar ao catálogo

STARLINK-2589

AtivoComunicaçõesVLEO
NORAD 48371·PAYLOAD·🇺🇸 United States

Lançado May 4, 2021 de Cape Canaveral Space Force Station

Loading…

Próximas Passagens (próximas 24 horas)

TLE

AtualizadoSource: CelesTrak SupGP

Época: Sep 15, 2026, 02:45 UTC

1 48371C 21038U   26258.11506944 -.00002407  00000+0 -77432-4 0  2589
2 48371  53.1577 186.3556 0001391  88.8974 337.9153 15.31696784    17

Acompanhe STARLINK-2589 em tempo real com AllMySat

Download on the App Store